"Pseudo-MPEC" for P11BXOW

Created 2022 Nov 26 9:22:18 UT using Find_Orb

Click here for an explanation of pseudo-MPECs

 
 Astrometry: 
     P11BXOW* C2022 11 23j\B\xtN!8Mn#ek*0V=OMu2,?531u`?@BVAstrometryt6+u(2D+xF51
     P11BXOW  C2022 11 23$v\4-y4t*@9@SJomDii`cP+9X=]coa9QP+n4redacted;%xT?rbCF51
     P11BXOW  C2022 11 23BUgeEMeb#p!5h8R7TFC*FNR5S*iLW+Jy;7`?*vTXfvp4JdW.e_:lF51
     P11BXOW  C2022 11 23EC?VOC/j4M*-1`^fJb5hP9-aLFpL9;o2Kx/ZBC.LQ?35_+_@'R4hF51
     P11BXOW  C2022 11 23:j::`fclick-V6?'4Nhereb1forLJ]#CJl]VQ_P27!+.;o\-Kr'RF51
     P11BXOW |C2022 11 24`/explanationnq[r/83*yC[8tH)8Ii!dipvurW'3gP^HG;[Eq$[807
     P11BXOW |C2022 11 24/R)mE,\JKpK!EwYL0VIV%pqw+qod,Xp5K;Aa;E2ephdn!7X!G[1L807
     P11BXOW |C2022 11 24R)$7TM!`_rO1gJL]o_HfMg4N$l)%N:RZw0qQ]MkBy@-fjZI`sLLF807
     P11BXOW KC2022 11 269:Nq,WP4K(n#l@TOmFLl@321m\K@bQfUknw%VfQ9ZT_b5Gb;9)NLH21
     P11BXOW KC2022 11 26nvb?$J]3;Qml1#Xb9pVm2E;u`.XhZdvy[IrgdIZV4^iPT(F0O3UjH21

Station data:
(807) Cerro Tololo Observatory, La Serena  (S30.169133 W70.805900)  Chile.
   Observer R. Holmes. 0.61-m f/6.5 astrograph + CCD.
(F51) Pan-STARRS 1, Haleakala  (N20.707234 W156.255910)  US/Hawaii.
   Observers J. Bulger, T. Lowe, A. Schultz, M. Willman. Measurers K.
   Chambers, S. Chastel, T. de Boer, L. Denneau, J. Fairlamb, H. Flewelling,
   M. Huber, C.-C. Lin, E. Magnier, Y. Ramanjooloo, R. Wainscoat, R. Weryk.
   1.8-m Ritchey-Chrétien + CCD.
(H21) Astronomical Research Observatory, Westfield  (N39.483054 W87.968270)
   US/Illinois.  Observer R. Holmes. Measurers S. Foglia, L. Buzzi, T.
   Linder, R. Holmes. 0.76-m f/3.0 astrograph + CCD0.81-m f/4.0 astrograph +
   CCD0.61-m f/4.5 astrograph + CCD0.40-m f/5.32 astrograph + CCD.

Orbital elements:  P11BXOW
   Perihelion 2022 May 6.71570 +/- 9.01 TT = 17:10:36 (JD 2459706.21570)
Epoch 2022 Nov 26.0 TT = JDT 2459909.5   Earth MOID: 0.6863   AutoNEOCP
M  79.96026028 +/- 3.7              (J2000 ecliptic)
n   0.39334203 +/- 0.00721          Peri.  124.05787 +/- 2.8
a   1.84482770 +/- 0.0225           Node   215.87842 +/- 0.7
e   0.1190512 +/- 0.00944           Incl.   25.43019 +/- 0.6
P   2.51/915.22d           H 20.1   G  0.15   U  9.4
q 1.62519866 +/- 0.0162    Q 2.06445674 +/- 0.0386
From 10 observations 2022 Nov. 23-26; mean residual 0".20
Residuals in arcseconds: 
221123 F51  .25-  .01+    221123 F51  .06-  .03+    221126 H21  .52+  .10+    
221123 F51  .00   .18+    221124 807  .14+  .13-    221126 H21  .52-  .09-    
221123 F51  .12+  .00     221124 807  .07-  .13+    
221123 F51  .21+  .24-    221124 807  .07-  .00     

Ephemerides (geocentric):
Date (UTC) HH   RA             Dec           delta  r     elong  mag " sig PA
---- --------  ------------   ------------  ------ ------ -----  --- --------
2022 11 26 09  05 24 40.402   -08 01 29.68  .93303 1.8330 145.4 22.2 .274 169
2022 11 26 10  05 24 37.453   -08 02 21.90  .93304 1.8331 145.4 22.2 .312 167
2022 11 26 11  05 24 34.502   -08 03 14.07  .93305 1.8331 145.4 22.2 .351 165
2022 11 26 12  05 24 31.549   -08 04 06.19  .93306 1.8332 145.4 22.2 .391 164
2022 11 26 13  05 24 28.593   -08 04 58.25  .93307 1.8333 145.4 22.2 .433 163
2022 11 26 14  05 24 25.636   -08 05 50.27  .93309 1.8333 145.4 22.2 .475 162
2022 11 26 15  05 24 22.676   -08 06 42.24  .93310 1.8334 145.4 22.2 .519 161
2022 11 26 16  05 24 19.714   -08 07 34.16  .93311 1.8335 145.4 22.2 .564 161
2022 11 26 17  05 24 16.750   -08 08 26.02  .93313 1.8335 145.4 22.2 .610 160
2022 11 26 18  05 24 13.784   -08 09 17.84  .93314 1.8336 145.5 22.2 .658 160
2022 11 26 19  05 24 10.816   -08 10 09.60  .93316 1.8336 145.5 22.2 .706 159
2022 11 26 20  05 24 07.845   -08 11 01.32  .93317 1.8337 145.5 22.2 .756 159
2022 11 26 21  05 24 04.873   -08 11 52.98  .93319 1.8338 145.5 22.2 .806 159
2022 11 26 22  05 24 01.899   -08 12 44.59  .93321 1.8338 145.5 22.2 .858 158
2022 11 26 23  05 23 58.922   -08 13 36.16  .93322 1.8339 145.5 22.2 .911 158
2022 11 27 00  05 23 55.943   -08 14 27.67  .93324 1.8340 145.5 22.2 .965 158
2022 11 27 01  05 23 52.963   -08 15 19.13  .93326 1.8340 145.5 22.2 1.02 158
2022 11 27 02  05 23 49.980   -08 16 10.54  .93328 1.8341 145.5 22.2 1.08 158
2022 11 27 03  05 23 46.995   -08 17 01.89  .93329 1.8342 145.6 22.2 1.13 157
2022 11 27 04  05 23 44.009   -08 17 53.20  .93331 1.8342 145.6 22.2 1.19 157
2022 11 27 05  05 23 41.020   -08 18 44.46  .93333 1.8343 145.6 22.2 1.25 157
2022 11 27 06  05 23 38.029   -08 19 35.66  .93335 1.8343 145.6 22.2 1.31 157
2022 11 27 07  05 23 35.036   -08 20 26.81  .93337 1.8344 145.6 22.2 1.37 157
2022 11 27 08  05 23 32.041   -08 21 17.91  .93339 1.8345 145.6 22.2 1.44 157
2022 11 27 09  05 23 29.044   -08 22 08.96  .93341 1.8345 145.6 22.2 1.50 157
2022 11 27 10  05 23 26.046   -08 22 59.96  .93343 1.8346 145.6 22.2 1.56 157
2022 11 27 11  05 23 23.045   -08 23 50.90  .93345 1.8347 145.6 22.2 1.63 157
2022 11 27 12  05 23 20.042   -08 24 41.79  .93347 1.8347 145.6 22.2 1.70 157
2022 11 27 13  05 23 17.038   -08 25 32.63  .93350 1.8348 145.7 22.2 1.77 157
2022 11 27 14  05 23 14.031   -08 26 23.42  .93352 1.8348 145.7 22.2 1.83 157
2022 11 27 15  05 23 11.022   -08 27 14.16  .93354 1.8349 145.7 22.2 1.91 156
2022 11 27 16  05 23 08.012   -08 28 04.84  .93357 1.8350 145.7 22.2 1.98 156
2022 11 27 17  05 23 04.999   -08 28 55.47  .93359 1.8350 145.7 22.2 2.05 156
2022 11 27 18  05 23 01.985   -08 29 46.05  .93361 1.8351 145.7 22.2 2.12 156
2022 11 27 19  05 22 58.969   -08 30 36.58  .93364 1.8352 145.7 22.2 2.20 156
2022 11 27 20  05 22 55.951   -08 31 27.05  .93366 1.8352 145.7 22.2 2.27 156
2022 11 27 21  05 22 52.931   -08 32 17.47  .93369 1.8353 145.7 22.2 2.35 156
2022 11 27 22  05 22 49.909   -08 33 07.84  .93371 1.8354 145.7 22.2 2.43 156
2022 11 27 23  05 22 46.885   -08 33 58.16  .93374 1.8354 145.8 22.2 2.51 156
2022 11 28 00  05 22 43.860   -08 34 48.42  .93377 1.8355 145.8 22.2 2.59 156
2022 11 28 01  05 22 40.832   -08 35 38.63  .93379 1.8355 145.8 22.2 2.67 156
2022 11 28 02  05 22 37.803   -08 36 28.79  .93382 1.8356 145.8 22.2 2.75 156
2022 11 28 03  05 22 34.772   -08 37 18.89  .93385 1.8357 145.8 22.2 2.83 156
2022 11 28 04  05 22 31.739   -08 38 08.94  .93388 1.8357 145.8 22.2 2.92 156
2022 11 28 05  05 22 28.704   -08 38 58.94  .93390 1.8358 145.8 22.2 3.00 156
2022 11 28 06  05 22 25.668   -08 39 48.88  .93393 1.8359 145.8 22.2 3.09 156
2022 11 28 07  05 22 22.629   -08 40 38.77  .93396 1.8359 145.8 22.2 3.18 156
2022 11 28 08  05 22 19.589   -08 41 28.61  .93399 1.8360 145.8 22.2 3.27 156